EW5857 Weather Reports


Display with metric or nautical units.
time (UTC)temp
F
wind
direction
speed
MPH
gust
MPH
rain 1hr
in
rain 24hr
in
rain mn
in
humidity
%
barometer
mb
20171216184708 36 320 0.0 0.0 0.02 0.06 0.06 89 1015.7
20171216184207 36 320 0.0 0.0 0.02 0.06 0.06 89 1015.7
20171216183707 36 320 0.0 3.0 0.02 0.06 0.06 89 1015.7
20171216183208 36 320 0.0 4.0 0.02 0.06 0.06 89 1015.5
20171216182706 36 320 1.0 5.0 0.02 0.06 0.06 89 1015.5
20171216182211 36 320 1.0 5.0 0.02 0.06 0.06 89 1015.4
20171216181707 35 231 1.0 5.0 0.02 0.06 0.06 89 1015.4
20171216181208 35 11 1.0 4.0 0.01 0.04 0.04 89 1015.7
20171216180709 35 340 1.0 2.0 0.01 0.04 0.04 89 1015.8
20171216180207 35 230 0.0 1.0 0.01 0.04 0.04 89 1015.4
20171216175708 36 230 0.0 1.0 0.01 0.04 0.04 89 1015.3
20171216175207 36 230 0.0 2.0 0.01 0.04 0.04 89 1015.3
20171216174707 36 230 0.0 2.0 0.01 0.04 0.04 89 1015.2
20171216174208 36 230 0.0 2.0 0.01 0.04 0.04 89 1015.1
20171216173708 36 230 0.0 0.0 0.01 0.04 0.04 89 1015.0
20171216173210 36 230 0.0 2.0 0.01 0.04 0.04 89 1015.0
20171216172706 36 230 0.0 2.0 0.01 0.04 0.04 89 1015.0
20171216172209 36 230 0.0 2.0 0.01 0.04 0.04 89 1015.0
20171216171708 36 230 0.0 1.0 0.01 0.04 0.04 89 1014.9
20171216171207 36 230 0.0 2.0 0.00 0.03 0.03 89 1014.9
20171216170708 37 230 0.0 2.0 0.00 0.03 0.03 89 1014.8
20171216170215 37 230 0.0 2.0 0.00 0.03 0.03 89 1014.7
20171216165706 37 230 0.0 0.0 0.01 0.03 0.03 89 1014.6
20171216165208 37 230 0.0 0.0 0.01 0.03 0.03 89 1014.5
20171216164706 37 230 0.0 2.0 0.01 0.03 0.03 89 1014.5
20171216164207 37 230 0.0 3.0 0.01 0.03 0.03 89 1014.5
20171216163706 37 230 0.0 3.0 0.01 0.03 0.03 89 1014.5
20171216163208 37 230 1.0 3.0 0.01 0.03 0.03 89 1014.4
20171216162707 37 230 1.0 3.0 0.01 0.03 0.03 89 1014.3
20171216162208 37 302 1.0 2.0 0.01 0.03 0.03 89 1014.4
20171216161707 37 269 1.0 5.0 0.01 0.03 0.03 89 1014.4
20171216161207 37 340 1.0 5.0 0.01 0.03 0.03 90 1014.2
20171216160707 37 5 1.0 5.0 0.01 0.03 0.03 90 1014.4
20171216160207 37 302 1.0 4.0 0.00 0.02 0.02 89 1014.5
20171216155708 37 213 0.0 3.0 0.00 0.02 0.02 89 1014.1
20171216155206 38 213 1.0 3.0 0.00 0.02 0.02 89 1013.9
20171216154711 38 213 1.0 5.0 0.00 0.02 0.02 89 1013.9
20171216154207 38 217 1.0 5.0 0.00 0.02 0.02 89 1013.8
20171216153708 38 282 1.0 6.0 0.00 0.02 0.02 89 1013.8
20171216153207 38 233 2.0 8.0 0.00 0.02 0.02 89 1013.7
20171216152708 38 284 2.0 8.0 0.00 0.02 0.02 89 1013.8
20171216152208 38 302 2.0 8.0 0.00 0.02 0.02 89 1013.6
20171216151707 38 243 2.0 7.0 0.00 0.02 0.02 89 1013.6
20171216151210 38 304 2.0 7.0 0.00 0.02 0.02 89 1013.5
20171216150706 38 321 2.0 9.0 0.00 0.02 0.02 89 1013.4
20171216150209 38 309 2.0 9.0 0.00 0.02 0.02 89 1013.4
20171216145707 38 319 3.0 9.0 0.00 0.02 0.02 89 1013.3
20171216145208 38 290 2.0 7.0 0.00 0.02 0.02 89 1013.3
20171216144714 38 315 1.0 3.0 0.00 0.02 0.02 89 1013.3
20171216144208 38 286 1.0 3.0 0.01 0.02 0.02 89 1013.3
20171216143706 38 266 1.0 7.0 0.01 0.02 0.02 89 1013.1
20171216143208 38 293 1.0 7.0 0.01 0.02 0.02 89 1013.1
20171216142707 38 300 2.0 7.0 0.01 0.02 0.02 89 1013.0
20171216142207 39 295 2.0 6.0 0.01 0.02 0.02 89 1013.0
20171216141707 39 302 2.0 10.0 0.01 0.02 0.02 89 1012.9
20171216141206 39 296 3.0 12.0 0.01 0.02 0.02 89 1012.9
20171216140707 39 281 4.0 12.0 0.01 0.02 0.02 89 1012.8
20171216140209 39 326 3.0 12.0 0.01 0.02 0.02 89 1012.9
20171216135706 39 273 2.0 9.0 0.01 0.02 0.02 89 1012.8
20171216135207 39 321 2.0 9.0 0.01 0.02 0.02 89 1012.6
20171216134721 39 319 3.0 9.0 0.00 0.02 0.02 89 1012.6
20171216134206 39 324 2.0 7.0 0.00 0.02 0.02 89 1012.6
20171216133712 39 256 2.0 6.0 0.00 0.02 0.02 89 1012.5
20171216133208 39 269 1.0 6.0 0.00 0.02 0.02 89 1012.4
20171216132710 39 265 1.0 7.0 0.00 0.02 0.02 89 1012.4
20171216132209 39 271 1.0 7.0 0.00 0.02 0.02 89 1012.3
20171216131708 39 217 1.0 7.0 0.00 0.02 0.02 89 1012.3
20171216131207 39 263 2.0 5.0 0.00 0.02 0.02 89 1012.3
20171216130708 39 218 1.0 6.0 0.00 0.02 0.02 89 1012.3
20171216130208 39 131 1.0 6.0 0.00 0.02 0.02 89 1012.3
20171216125707 39 209 1.0 6.0 0.00 0.02 0.02 89 1012.3
20171216125208 39 265 1.0 4.0 0.00 0.02 0.02 89 1012.3
20171216124707 39 286 1.0 5.0 0.00 0.02 0.02 89 1012.3
20171216124211 39 314 1.0 10.0 0.00 0.02 0.02 89 1012.2
20171216123707 39 306 2.0 15.0 0.00 0.02 0.02 89 1012.1
20171216123209 39 310 4.0 15.0 0.00 0.02 0.02 89 1012.2
20171216122706 39 349 3.0 15.0 0.00 0.02 0.02 89 1012.2
20171216122208 39 325 1.0 6.0 0.00 0.02 0.02 89 1012.3
20171216121707 39 265 1.0 3.0 0.01 0.02 0.02 89 1012.0
20171216121207 39 296 1.0 3.0 0.01 0.02 0.02 89 1012.0
20171216120707 39 299 1.0 6.0 0.01 0.02 0.02 89 1012.0
20171216120207 39 296 1.0 6.0 0.01 0.02 0.02 89 1011.9
20171216115712 39 286 2.0 7.0 0.01 0.02 0.02 89 1012.0
20171216115208 39 239 2.0 9.0 0.01 0.02 0.02 88 1012.0
20171216114707 39 313 2.0 15.0 0.01 0.02 0.02 88 1012.0
20171216114207 40 334 4.0 15.0 0.01 0.02 0.02 87 1012.0
20171216113708 40 337 5.0 14.0 0.01 0.02 0.02 86 1012.0
20171216113211 40 289 3.0 6.0 0.01 0.02 0.02 86 1012.0
20171216112705 39 298 3.0 6.0 0.01 0.02 0.02 86 1011.7
20171216112210 39 302 2.0 5.0 0.00 0.01 0.01 87 1011.7
20171216111710 39 337 2.0 5.0 0.00 0.01 0.01 87 1011.6
20171216111206 39 240 2.0 5.0 0.00 0.01 0.01 87 1011.6
20171216110707 39 214 2.0 6.0 0.00 0.01 0.01 88 1011.6
20171216110206 38 337 2.0 6.0 0.00 0.01 0.01 87 1011.6
20171216105708 38 237 1.0 10.0 0.00 0.01 0.01 88 1011.6
20171216105207 38 237 2.0 10.0 0.00 0.01 0.01 88 1011.6
20171216104708 38 252 2.0 10.0 0.00 0.01 0.01 88 1011.6
20171216104210 38 277 2.0 8.0 0.00 0.01 0.01 88 1011.5
20171216103706 38 298 2.0 8.0 0.00 0.01 0.01 88 1011.5
20171216103210 37 303 3.0 8.0 0.00 0.01 0.01 88 1011.4
20171216102707 37 259 2.0 6.0 0.00 0.01 0.01 88 1011.4
20171216102207 37 5 1.0 8.0 0.00 0.01 0.01 88 1011.3
20171216101707 37 338 1.0 8.0 0.00 0.01 0.01 88 1011.4
20171216101211 36 269 1.0 8.0 0.00 0.01 0.01 88 1011.3
20171216100707 36 245 1.0 4.0 0.00 0.01 0.01 88 1011.3
20171216100208 36 229 0.0 2.0 0.00 0.01 0.01 88 1011.3
20171216095708 36 263 0.0 2.0 0.00 0.01 0.01 88 1011.2
20171216095208 36 263 0.0 2.0 0.00 0.01 0.01 88 1011.1
20171216094706 36 254 0.0 2.0 0.00 0.01 0.01 88 1011.1
20171216094207 36 254 0.0 5.0 0.00 0.01 0.01 88 1011.0
20171216093708 35 250 1.0 7.0 0.00 0.01 0.01 88 1010.9
20171216093207 35 228 1.0 7.0 0.00 0.01 0.01 88 1010.9
20171216092706 35 286 1.0 7.0 0.00 0.01 0.01 88 1010.8
20171216092208 34 336 1.0 4.0 0.00 0.01 0.01 88 1010.7
20171216091719 34 271 0.0 3.0 0.00 0.01 0.01 87 1010.7
20171216091207 33 271 0.0 2.0 0.00 0.01 0.01 87 1010.6
20171216090713 33 270 0.0 2.0 0.00 0.01 0.01 87 1010.6
20171216090208 33 270 0.0 1.0 0.00 0.01 0.01 87 1010.6
20171216085706 33 270 0.0 1.0 0.00 0.01 0.01 87 1010.5
20171216085208 33 270 0.0 1.0 0.00 0.01 0.01 87 1010.4
20171216084707 33 270 0.0 1.0 0.00 0.01 0.01 87 1010.2
20171216084210 33 270 0.0 1.0 0.00 0.01 0.01 87 1010.1
20171216083707 33 270 0.0 2.0 0.00 0.01 0.01 87 1010.0
20171216083218 33 270 0.0 4.0 0.00 0.01 0.01 87 1009.9
20171216082708 33 270 0.0 4.0 0.00 0.01 0.01 87 1009.9
20171216082209 33 278 0.0 4.0 0.00 0.01 0.01 87 1009.9
20171216081707 33 256 0.0 2.0 0.00 0.01 0.01 87 1009.7
20171216081212 33 256 0.0 1.0 0.00 0.01 0.01 87 1009.7
20171216080711 33 217 0.0 1.0 0.00 0.01 0.01 87 1009.6
20171216080209 33 217 0.0 3.0 0.00 0.01 0.01 87 1009.5
20171216075707 33 217 1.0 3.0 0.00 0.01 0.01 87 1009.4
20171216075213 33 217 1.0 3.0 0.00 0.01 0.01 87 1009.3
20171216074708 33 273 0.0 2.0 0.00 0.01 0.01 87 1009.3
20171216074209 33 260 0.0 2.0 0.00 0.01 0.01 87 1009.2
20171216073707 33 260 0.0 3.0 0.00 0.01 0.01 87 1009.2
20171216073209 33 260 0.0 6.0 0.00 0.01 0.01 87 1009.1
20171216072708 33 260 1.0 6.0 0.00 0.01 0.01 87 1009.0
20171216072210 33 250 1.0 4.0 0.00 0.01 0.01 87 1008.9
20171216071707 33 280 1.0 3.0 0.00 0.01 0.01 87 1008.9
20171216071208 33 261 0.0 2.0 0.00 0.01 0.01 87 1008.8
20171216070708 33 319 0.0 2.0 0.00 0.01 0.01 87 1008.7
20171216070214 33 319 0.0 4.0 0.00 0.01 0.01 87 1008.7
20171216065708 33 319 0.0 4.0 0.00 0.01 0.01 87 1008.7
20171216065208 33 319 0.0 4.0 0.00 0.01 0.01 87 1008.5
20171216064708 33 315 0.0 0.0 0.00 0.01 0.01 87 1008.4
20171216064209 33 311 0.0 0.0 0.00 0.01 0.01 87 1008.4
20171216063707 33 311 0.0 0.0 0.00 0.01 0.01 87 1008.4
20171216063209 33 311 0.0 2.0 0.00 0.01 0.01 88 1008.4
20171216062708 33 311 0.0 2.0 0.00 0.01 0.01 88 1008.4
20171216062212 33 311 0.0 2.0 0.00 0.01 0.01 88 1008.2
20171216061710 33 311 0.0 3.0 0.00 0.01 0.01 88 1008.2
20171216061208 33 311 0.0 3.0 0.00 0.01 0.01 88 1008.1
20171216060711 33 311 0.0 5.0 0.00 0.01 0.01 88 1007.9
20171216060210 33 311 1.0 5.0 0.00 0.01 0.01 88 1007.9
20171216055708 33 296 1.0 7.0 0.00 0.01 0.01 87 1007.9
20171216055209 33 304 1.0 7.0 0.00 0.01 0.01 87 1007.8
20171216054707 33 309 1.0 7.0 0.00 0.01 0.01 88 1007.8
20171216054210 33 287 1.0 4.0 0.00 0.01 0.01 87 1007.9
20171216053708 33 279 0.0 3.0 0.00 0.01 0.01 87 1007.8
20171216053216 32 279 0.0 3.0 0.00 0.01 0.01 87 1007.8
20171216052708 32 279 0.0 4.0 0.00 0.01 0.01 87 1007.6
20171216052211 32 279 1.0 4.0 0.00 0.01 0.01 87 1007.6
20171216051710 32 252 1.0 4.0 0.00 0.01 0.01 87 1007.6
20171216051214 32 280 1.0 4.0 0.00 0.01 0.01 87 1007.5
20171216050708 31 310 0.0 3.0 0.00 0.01 0.01 87 1007.6
20171216050209 31 310 0.0 3.0 0.00 0.01 0.01 88 1007.4
20171216045708 31 321 0.0 0.0 0.00 0.02 0.01 88 1007.4
20171216045208 31 321 0.0 0.0 0.00 0.02 0.01 88 1007.3
20171216044710 31 321 0.0 0.0 0.00 0.02 0.01 88 1007.3
20171216044209 32 321 0.0 0.0 0.00 0.02 0.01 88 1007.3
20171216043727 32 321 0.0 0.0 0.00 0.02 0.01 88 1007.3
20171216043209 32 321 0.0 0.0 0.00 0.02 0.01 88 1007.2
20171216042708 32 321 0.0 0.0 0.00 0.02 0.01 88 1007.1
20171216042209 32 321 0.0 2.0 0.00 0.02 0.01 88 1007.1
20171216041708 32 321 0.0 2.0 0.00 0.02 0.01 87 1007.0
20171216041209 32 321 0.0 2.0 0.00 0.02 0.01 87 1007.0
20171216040708 32 321 0.0 2.0 0.00 0.02 0.01 87 1006.8
20171216040209 32 321 0.0 1.0 0.00 0.02 0.01 87 1006.8
20171216035719 32 322 0.0 1.0 0.00 0.02 0.01 88 1006.7
20171216035208 32 322 0.0 2.0 0.00 0.02 0.01 88 1006.7
20171216034707 32 322 0.0 2.0 0.00 0.02 0.01 88 1006.7
20171216034208 32 322 0.0 1.0 0.00 0.02 0.01 88 1006.6
20171216033706 32 322 0.0 0.0 0.00 0.02 0.01 88 1006.5
20171216033206 32 322 0.0 0.0 0.00 0.02 0.01 88 1006.4
20171216032707 32 322 0.0 0.0 0.00 0.02 0.01 88 1006.4
20171216032208 33 322 0.0 0.0 0.00 0.02 0.01 87 1006.3
20171216031706 33 322 0.0 0.0 0.00 0.02 0.01 88 1006.3
20171216031226 33 322 0.0 0.0 0.00 0.02 0.01 87 1006.3
20171216030709 33 322 0.0 0.0 0.00 0.02 0.01 87 1006.3
20171216030207 33 322 0.0 0.0 0.00 0.02 0.01 87 1006.2
20171216025706 33 322 0.0 0.0 0.00 0.02 0.01 87 1006.1
20171216025207 33 322 0.0 0.0 0.00 0.02 0.01 87 1006.1
20171216024706 33 322 0.0 0.0 0.00 0.02 0.01 87 1006.1
20171216024207 33 322 0.0 0.0 0.00 0.02 0.01 87 1006.0
20171216023728 33 322 0.0 0.0 0.00 0.02 0.01 87 1006.0
20171216023209 33 322 0.0 0.0 0.00 0.02 0.01 87 1006.0
20171216022706 33 322 0.0 0.0 0.00 0.02 0.01 87 1006.0
20171216022206 33 322 0.0 0.0 0.00 0.02 0.01 87 1005.9
20171216021707 33 322 0.0 0.0 0.00 0.02 0.01 87 1005.7
20171216021207 33 322 0.0 0.0 0.00 0.02 0.01 87 1005.7
20171216020707 33 322 0.0 0.0 0.00 0.02 0.01 87 1005.5
20171216020207 33 322 0.0 1.0 0.00 0.02 0.01 88 1005.5
20171216015708 33 322 0.0 1.0 0.00 0.02 0.01 88 1005.5
20171216015206 33 322 0.0 1.0 0.00 0.02 0.01 87 1005.5
20171216014708 34 322 0.0 1.0 0.00 0.02 0.01 87 1005.4
20171216014207 34 322 0.0 1.0 0.00 0.02 0.01 87 1005.3
20171216013708 34 322 0.0 1.0 0.00 0.02 0.01 87 1005.2
20171216013209 34 322 0.0 2.0 0.00 0.02 0.01 87 1005.1
20171216012707 34 322 0.0 2.0 0.00 0.02 0.01 87 1005.0
20171216012209 34 322 0.0 1.0 0.00 0.02 0.01 87 1004.9
20171216011708 34 322 0.0 1.0 0.01 0.02 0.01 87 1004.8
20171216011206 34 322 0.0 1.0 0.01 0.02 0.01 87 1004.8
20171216010707 34 322 0.0 1.0 0.01 0.02 0.01 87 1004.7
20171216010211 35 322 0.0 1.0 0.01 0.02 0.01 87 1004.6
20171216005711 35 322 0.0 1.0 0.01 0.02 0.01 87 1004.5
20171216005206 35 322 0.0 0.0 0.01 0.02 0.01 87 1004.5
20171216004706 34 322 0.0 0.0 0.01 0.02 0.01 87 1004.4
20171216004212 34 322 0.0 0.0 0.01 0.02 0.01 87 1004.3
20171216003706 34 322 0.0 0.0 0.01 0.02 0.01 87 1004.3
20171216003207 34 322 0.0 0.0 0.01 0.02 0.01 87 1004.3
20171216002706 34 322 0.0 0.0 0.01 0.02 0.01 87 1004.2
20171216002207 34 322 0.0 0.0 0.01 0.02 0.01 87 1004.3
20171216001708 34 322 0.0 0.0 0.00 0.01 0.00 87 1004.3
20171216001206 33 322 0.0 0.0 0.00 0.01 0.00 87 1004.2
20171216000708 33 322 0.0 0.0 0.00 0.01 0.00 87 1004.2
20171216000207 33 322 0.0 0.0 0.00 0.01 0.00 87 1004.2
20171215235707 33 322 0.0 0.0 0.00 0.01 0.00 87 1004.1
20171215235206 33 322 0.0 0.0 0.00 0.01 0.00 88 1004.1
20171215234711 33 322 0.0 0.0 0.00 0.01 0.00 88 1004.0
20171215234217 33 322 0.0 0.0 0.00 0.01 0.00 88 1003.9
20171215233709 33 322 0.0 0.0 0.00 0.01 0.00 88 1004.0
20171215233209 33 322 0.0 0.0 0.00 0.01 0.00 89 1003.9
20171215232712 33 322 0.0 0.0 0.00 0.01 0.00 89 1003.8
20171215232210 33 322 0.0 0.0 0.00 0.01 0.00 89 1003.8
20171215231707 33 322 0.0 0.0 0.00 0.01 0.00 89 1003.8
20171215231208 33 322 0.0 0.0 0.00 0.01 0.00 89 1003.8
20171215230707 34 322 0.0 0.0 0.00 0.01 0.00 89 1003.7
20171215230209 34 322 0.0 0.0 0.00 0.01 0.01 89 1003.7
20171215225706 34 322 0.0 0.0 0.00 0.01 0.01 89 1003.6
20171215225209 35 322 0.0 0.0 0.00 0.01 0.01 89 1003.6
20171215224706 35 322 0.0 0.0 0.00 0.01 0.01 89 1003.6
20171215224208 35 322 0.0 0.0 0.00 0.01 0.01 89 1003.5
20171215223710 35 322 0.0 0.0 0.00 0.01 0.01 89 1003.4
20171215223206 35 322 0.0 0.0 0.00 0.01 0.01 89 1003.3
20171215222711 36 322 0.0 0.0 0.00 0.01 0.01 88 1003.2
20171215222207 36 322 0.0 0.0 0.00 0.01 0.01 88 1003.1
20171215221710 36 322 0.0 0.0 0.00 0.01 0.01 88 1003.1
20171215221206 37 322 0.0 0.0 0.00 0.01 0.01 88 1002.9
20171215220706 37 322 0.0 0.0 0.00 0.01 0.01 88 1002.9
20171215220207 37 322 0.0 0.0 0.00 0.01 0.01 87 1002.8
20171215215708 37 322 0.0 0.0 0.00 0.01 0.01 87 1002.7
20171215215206 37 322 0.0 1.0 0.00 0.01 0.01 87 1002.7
20171215214709 38 322 0.0 2.0 0.00 0.01 0.01 87 1002.6
20171215214207 38 322 0.0 2.0 0.00 0.01 0.01 87 1002.6
20171215213706 38 322 0.0 2.0 0.00 0.01 0.01 87 1002.6
20171215213208 38 322 0.0 2.0 0.00 0.01 0.01 87 1002.5
20171215212707 38 325 0.0 0.0 0.00 0.01 0.01 86 1002.4
20171215212208 38 325 0.0 0.0 0.00 0.01 0.01 86 1002.3
20171215211706 38 325 0.0 0.0 0.00 0.01 0.01 86 1002.2
20171215211210 38 325 0.0 0.0 0.00 0.01 0.01 86 1002.2
20171215210709 38 325 0.0 0.0 0.00 0.01 0.01 86 1002.2
20171215210214 38 325 0.0 0.0 0.00 0.01 0.01 86 1002.1
20171215205707 38 325 0.0 0.0 0.00 0.01 0.01 86 1002.1
20171215205207 38 325 0.0 0.0 0.00 0.01 0.01 86 1002.1
20171215204707 38 325 0.0 0.0 0.00 0.01 0.01 86 1002.1
20171215204211 38 325 0.0 0.0 0.00 0.01 0.01 86 1002.1
20171215203711 38 325 0.0 0.0 0.00 0.01 0.01 86 1002.1
20171215203208 38 325 0.0 0.0 0.00 0.01 0.01 86 1002.1
20171215202707 38 325 0.0 0.0 0.00 0.01 0.01 86 1002.1
20171215202212 38 325 0.0 0.0 0.00 0.01 0.01 86 1002.0
20171215201707 38 325 0.0 0.0 0.00 0.01 0.01 86 1001.9
20171215201206 38 325 0.0 1.0 0.00 0.01 0.01 86 1001.8
20171215200707 38 325 0.0 1.0 0.00 0.01 0.01 86 1001.7
20171215200208 38 325 0.0 1.0 0.00 0.01 0.01 86 1001.6
20171215195707 38 325 0.0 0.0 0.00 0.01 0.01 86 1001.5
20171215195207 38 325 0.0 1.0 0.00 0.01 0.01 86 1001.3
20171215194708 38 325 0.0 1.0 0.00 0.01 0.01 86 1001.2
20171215194208 38 325 0.0 1.0 0.00 0.01 0.01 86 1001.1
20171215193706 38 325 0.0 2.0 0.00 0.01 0.01 86 1001.1
20171215193207 38 325 0.0 2.0 0.00 0.01 0.01 86 1001.0
20171215192707 38 325 0.0 2.0 0.00 0.01 0.01 86 1001.0
20171215192208 38 325 0.0 2.0 0.00 0.01 0.01 86 1000.9
20171215191706 38 325 0.0 1.0 0.00 0.01 0.01 86 1000.8
20171215191207 38 325 0.0 1.0 0.00 0.01 0.01 86 1000.7
20171215190707 38 325 0.0 3.0 0.00 0.01 0.01 86 1000.7
20171215190210 38 325 0.0 3.0 0.00 0.01 0.01 86 1000.7
20171215185705 38 325 0.0 3.0 0.00 0.01 0.01 86 1000.6
20171215185208 38 325 1.0 3.0 0.00 0.01 0.01 86 1000.5